EW3904 Weather Reports


time (UTC)temp
C
wind
direction
speed
KPH
gust
KPH
rain 1hr
cm
rain 24hr
cm
rain mn
cm
humidity
%
barometer
mb
20260906115241 22 167 0.0 0.0 0.00 0.05 0.00 93 1014.6
20260906113249 21 24 0.0 0.0 0.00 0.05 0.00 94 1014.5
20260906112249 21 24 0.0 0.0 0.00 0.05 0.00 94 1014.5
20260906111249 21 49 0.0 0.0 0.00 0.05 0.00 93 1014.4
20260906110249 21 34 0.0 0.0 0.00 0.05 0.00 93 1014.3
20260906104249 21 10 0.0 0.0 0.00 0.05 0.00 93 1014.5
20260906103249 21 15 0.0 0.0 0.00 0.05 0.00 93 1014.5
20260906102249 21 63 0.0 0.0 0.00 0.05 0.00 92 1014.4
20260906101248 22 275 0.0 0.0 0.00 0.05 0.00 92 1014.4
20260906100249 22 270 0.0 0.0 0.00 0.05 0.00 92 1014.3
20260906095248 22 360 0.0 0.0 0.00 0.05 0.00 92 1014.4
20260906094249 22 264 0.0 1.6 0.00 0.05 0.00 93 1014.6
20260906091248 21 317 1.6 3.2 0.00 0.05 0.00 93 1014.4
20260906085248 21 59 0.0 0.0 0.00 0.05 0.00 93 1014.3
20260906083248 21 59 0.0 0.0 0.00 0.05 0.00 93 1014.5
20260906082248 21 315 0.0 0.0 0.00 0.05 0.00 92 1014.4
20260906081248 22 315 0.0 0.0 0.00 0.05 0.00 91 1014.3
20260906080248 22 315 0.0 0.0 0.00 0.05 0.00 92 1014.4
20260906075248 22 315 0.0 3.2 0.00 0.05 0.00 91 1014.3
20260906073247 22 336 1.6 6.4 0.00 0.05 0.00 91 1014.3
20260906071247 22 254 4.8 4.8 0.00 0.05 0.00 92 1014.4
20260906070248 22 276 0.0 0.0 0.00 0.05 0.00 92 1014.4
20260906065247 21 276 0.0 0.0 0.00 0.05 0.00 92 1014.4
20260906064247 21 276 0.0 0.0 0.00 0.05 0.00 92 1014.7
20260906063247 21 276 1.6 1.6 0.00 0.05 0.00 93 1014.7
20260906062247 21 340 3.2 4.8 0.00 0.05 0.00 93 1014.7
20260906061247 21 322 1.6 3.2 0.00 0.05 0.00 92 1014.7
20260906060247 21 338 0.0 1.6 0.00 0.05 0.00 92 1014.7
20260906055247 21 338 0.0 1.6 0.00 0.05 0.00 92 1014.8
20260906054247 21 206 0.0 0.0 0.00 0.05 0.00 92 1014.8
20260906053246 21 206 0.0 1.6 0.00 0.05 0.00 92 1014.9
20260906052246 21 210 1.6 3.2 0.00 0.05 0.00 91 1014.7
20260906045247 22 182 1.6 3.2 0.00 0.05 0.00 88 1015.2
20260906044246 22 15 0.0 1.6 0.00 0.05 0.00 87 1015.0
20260906043246 22 347 1.6 3.2 0.00 0.05 0.00 87 1014.9
20260906042246 22 288 3.2 4.8 0.00 0.05 0.00 87 1014.9
20260906041246 22 326 1.6 3.2 0.00 0.05 0.00 87 1014.7
20260906034246 22 5 0.0 4.8 0.00 0.05 0.05 88 1014.7
20260906032245 22 331 1.6 4.8 0.00 0.05 0.05 90 1014.7
20260906031246 22 355 3.2 4.8 0.00 0.05 0.05 90 1014.8
20260906030245 22 55 1.6 3.2 0.00 0.05 0.05 89 1015.0
20260906024246 22 15 1.6 4.8 0.00 0.05 0.05 89 1015.0
20260906022246 22 29 1.6 3.2 0.00 0.05 0.05 86 1015.4
20260906021245 22 267 1.6 8.0 0.00 0.05 0.05 86 1015.5
20260906020246 22 244 4.8 6.4 0.00 0.05 0.05 87 1015.4
20260906015245 22 34 0.0 0.0 0.00 0.05 0.05 88 1015.3
20260906014245 22 34 0.0 0.0 0.00 0.05 0.05 88 1015.0
20260906011245 22 306 1.6 3.2 0.05 0.05 0.05 83 1014.8
20260906005245 22 196 1.6 11.3 0.05 0.05 0.05 83 1014.4
20260906004244 22 163 6.4 9.7 0.05 0.05 0.05 83 1014.7
20260906003245 23 97 3.2 9.7 0.05 0.05 0.05 77 1014.2
20260906002244 24 268 1.6 12.9 0.03 0.03 0.03 72 1015.5
20260906001244 26 355 4.8 9.7 0.00 0.00 0.00 64 1015.4
20260906000244 27 29 6.4 27.4 0.00 0.00 0.00 62 1014.9
20260905235244 30 263 25.7 33.8 0.00 0.00 0.00 63 1014.6
20260905234244 31 274 14.5 16.1 0.00 0.00 0.00 69 1013.5
20260905232244 31 232 9.7 16.1 0.00 0.00 0.00 66 1012.9
20260905231243 31 224 11.3 16.1 0.00 0.00 0.00 66 1013.0
20260905225244 32 238 11.3 14.5 0.00 0.00 0.00 63 1013.1
20260905224244 33 222 11.3 14.5 0.00 0.00 0.00 62 1013.3
20260905223244 33 230 11.3 12.9 0.00 0.00 0.00 61 1013.2
20260905222244 33 223 11.3 16.1 0.00 0.00 0.00 61 1013.1
20260905221244 33 262 12.9 16.1 0.00 0.00 0.00 59 1013.0
20260905220243 33 271 14.5 19.3 0.00 0.00 0.00 57 1012.7
20260905215243 35 272 14.5 16.1 0.00 0.00 0.00 55 1012.8
20260905214244 36 223 8.0 8.0 0.00 0.00 0.00 44 1012.7
20260905212243 36 215 4.8 6.4 0.00 0.00 0.00 42 1012.6
20260905211243 35 146 3.2 4.8 0.00 0.00 0.00 43 1012.7
20260905210243 35 160 0.0 6.4 0.00 0.00 0.00 42 1012.8
20260905205243 35 167 4.8 6.4 0.00 0.00 0.00 42 1012.9
20260905203243 36 117 3.2 6.4 0.00 0.00 0.00 43 1013.2
20260905202243 35 193 6.4 6.4 0.00 0.00 0.00 42 1013.2
20260905201243 36 118 8.0 8.0 0.00 0.00 0.00 44 1013.5
20260905200243 36 306 1.6 6.4 0.00 0.00 0.00 42 1013.7
20260905195243 36 226 4.8 6.4 0.00 0.00 0.00 42 1014.0
20260905194242 35 203 3.2 6.4 0.00 0.00 0.00 45 1014.1
20260905193243 35 101 1.6 4.8 0.00 0.00 0.00 46 1014.2
20260905192243 35 234 6.4 8.0 0.00 0.00 0.00 47 1014.4
20260905191243 35 51 1.6 12.9 0.00 0.00 0.00 45 1014.3
20260905190242 36 350 6.4 12.9 0.00 0.00 0.00 45 1014.3
20260905185242 35 63 3.2 9.7 0.00 0.00 0.00 44 1014.5
20260905183242 35 49 8.0 17.7 0.00 0.00 0.00 43 1014.8
20260905182242 35 155 3.2 9.7 0.00 0.00 0.00 44 1014.9
20260905180242 34 78 4.8 9.7 0.00 0.00 0.00 46 1015.1
20260905175242 35 225 0.0 6.4 0.00 0.00 0.00 50 1015.2
20260905174242 35 29 6.4 9.7 0.00 0.00 0.00 48 1015.3
20260905173242 35 105 6.4 12.9 0.00 0.00 0.00 50 1015.4
20260905172242 34 32 4.8 9.7 0.00 0.00 0.00 50 1015.6
20260905171242 34 164 3.2 8.0 0.00 0.00 0.00 50 1015.8
20260905170242 34 143 6.4 9.7 0.00 0.00 0.00 52 1016.0
20260905165241 33 57 12.9 12.9 0.00 0.00 0.00 52 1016.0
20260905164241 33 304 6.4 8.0 0.00 0.00 0.00 54 1016.2
20260905162241 33 22 1.6 11.3 0.00 0.00 0.00 53 1016.5
20260905161241 33 298 1.6 6.4 0.00 0.00 0.00 53 1016.5
20260905160241 33 39 6.4 16.1 0.00 0.00 0.00 54 1016.6
20260905154241 32 71 8.0 16.1 0.00 0.00 0.00 53 1016.6
20260905153241 32 110 1.6 11.3 0.00 0.00 0.00 54 1016.8
20260905152241 32 339 1.6 8.0 0.00 0.00 0.00 57 1016.8
20260905151241 32 51 6.4 6.4 0.00 0.00 0.00 56 1017.0
20260905150240 31 53 3.2 9.7 0.00 0.00 0.00 60 1017.0
20260905145241 31 281 1.6 8.0 0.00 0.00 0.00 62 1016.9
20260905143241 31 46 4.8 6.4 0.00 0.00 0.00 65 1017.0
20260905142240 30 290 4.8 9.7 0.00 0.00 0.00 66 1017.0
20260905140241 30 342 4.8 8.0 0.00 0.00 0.00 69 1017.1
20260905135240 30 309 4.8 6.4 0.00 0.00 0.00 70 1017.2
20260905134241 29 326 3.2 8.0 0.00 0.00 0.00 72 1017.1
20260905133241 28 355 4.8 6.4 0.00 0.00 0.00 74 1017.1
20260905132240 28 12 4.8 4.8 0.00 0.00 0.00 79 1017.0
20260905131240 27 336 1.6 6.4 0.00 0.00 0.00 82 1017.2
20260905130241 27 326 3.2 6.4 0.00 0.00 0.00 82 1017.3
20260905125240 26 345 1.6 4.8 0.00 0.00 0.00 85 1017.3
20260905124240 25 5 0.0 3.2 0.00 0.00 0.00 87 1017.1
20260905123240 25 360 1.6 4.8 0.00 0.00 0.00 88 1017.0
20260905122240 24 319 0.0 3.2 0.00 0.00 0.00 92 1017.0
20260905121240 23 339 0.0 3.2 0.00 0.00 0.00 93 1016.8